Stations météo

réclame
Mon MeteoGroup
Hawarden, Grande-Bretagne (3321): Température de l'air & dewpoint: 13.07.2018 18:00:00 - 19.07.2018 18:00:00 (BST)Hawarden, Grande-Bretagne (3321): Température de l'air -20cm & Température de l'air -100cm: 13.07.2018 18:00:00 - 19.07.2018 18:00:00 (BST)Hawarden, Grande-Bretagne (3321): Vitesse du vent: 13.07.2018 18:00:00 - 19.07.2018 18:00:00 (BST)Hawarden, Grande-Bretagne (3321): Direction du vent: 13.07.2018 18:00:00 - 19.07.2018 18:00:00 (BST)Hawarden, Grande-Bretagne (3321): reduced air pressure: 13.07.2018 18:00:00 - 19.07.2018 18:00:00 (BST)Hawarden, Grande-Bretagne (3321): visibility: 13.07.2018 18:00:00 - 19.07.2018 18:00:00 (BST)Hawarden, Grande-Bretagne (3321): Ensoleillement: 13.07.2018 18:00:00 - 19.07.2018 18:00:00 (BST)Hawarden, Grande-Bretagne (3321): Quantités de précipitations: 13.07.2018 18:00:00 - 19.07.2018 18:00:00 (BST)
Date & Time tt [°C] td [°C] tt -20cm [°C] tt -100cm [°C] ff [km/h] ff [knt] dd ppp [hPa] vv [km] sd [min] rr [mm]
19.07.2018 18:00:00 20,9 9,5 - - 22 12 NW 1018,3 10 60 0,0
19.07.2018 17:00:00 21,5 9,0 - - 22 12 NW 1018,6 10 60 0,0
19.07.2018 16:00:00 21,9 10,4 - - 21 11 NW 1018,9 10 60 0,0
19.07.2018 15:00:00 21,9 9,7 - - 18 10 NW 1018,9 10 54 0,0
19.07.2018 14:00:00 22,1 8,6 - - 11 6 - 1019,1 10 36 0,0
19.07.2018 13:00:00 21,8 10,5 - - 13 7 NNW 1019,4 10 42 0,0
19.07.2018 12:00:00 21,5 10,2 - - 11 6 - 1019,6 10 60 0,0
19.07.2018 11:00:00 19,9 9,4 - - 8 4 - 1019,9 10 60 0,0
19.07.2018 10:00:00 19,2 12,1 18,7 17,0 9 5 N 1019,9 10 60 0,0
19.07.2018 09:00:00 17,3 12,2 - - 5 3 - 1020,0 10 12 0,0
19.07.2018 08:00:00 16,5 12,8 - - 2 1 - 1020,0 10 6 0,0
19.07.2018 07:00:00 15,2 12,4 - - 4 2 - 1020,1 10 0 0,0
19.07.2018 06:00:00 14,8 12,1 - - 2 1 - 1019,9 10 0 0,0
19.07.2018 05:00:00 14,4 11,9 - - 2 1 WNW 1019,9 13 0 0,0
19.07.2018 04:00:00 14,1 12,3 - - 4 2 WNW 1019,8 27 0 0,0
19.07.2018 03:00:00 11,9 10,5 - - 5 3 W 1019,9 20 0 0,0
19.07.2018 02:00:00 12,9 10,0 - - 4 2 NW 1019,8 26 0 0,0
19.07.2018 01:00:00 15,2 11,2 - - 4 2 NNW 1019,6 30 - 0,0
19.07.2018 00:00:00 16,1 12,2 - - 4 2 W 1019,5 26 0 0,0
18.07.2018 23:00:00 16,0 12,4 - - 5 3 W 1019,3 21 0 0,0
18.07.2018 22:00:00 17,1 13,4 - - 8 4 NW 1019,1 28 0 0,0
18.07.2018 21:00:00 18,6 13,7 - - 16 9 NW 1018,8 10 0 0,0
18.07.2018 20:00:00 19,9 11,9 - - 13 7 NW 1018,5 10 36 0,0
18.07.2018 19:00:00 19,9 11,7 - - 16 9 NW 1018,2 10 24 0,0
18.07.2018 18:00:00 20,4 10,7 - - 16 9 NW 1018,2 10 12 0,0
18.07.2018 17:00:00 20,3 12,3 - - 15 8 NW 1018,0 10 0 0,0
18.07.2018 16:00:00 20,4 13,4 - - 11 6 NNW 1017,9 10 0 0,0
18.07.2018 15:00:00 20,8 13,0 - - 5 3 - 1017,7 10 18 0,0
18.07.2018 14:00:00 20,7 13,9 - - 8 4 S 1017,8 10 6 0,0
18.07.2018 13:00:00 20,4 11,6 - - 8 4 SSE 1017,5 10 0 0,0
18.07.2018 12:00:00 20,2 13,3 - - 13 7 S 1017,6 10 0 0,0
18.07.2018 11:00:00 19,6 13,3 - - 11 6 S 1017,7 10 6 0,0
18.07.2018 10:00:00 18,6 13,0 18,9 17,0 9 5 S 1017,8 10 0 0,0
18.07.2018 09:00:00 17,3 12,5 - - 15 8 S 1017,7 10 18 0,0
18.07.2018 08:00:00 16,5 12,7 - - 8 4 SSE 1017,4 10 0 0,0
18.07.2018 07:00:00 15,2 12,0 - - 9 5 SSE 1017,1 10 0 0,0
18.07.2018 06:00:00 14,2 11,7 - - 5 3 SSE 1017,0 35 0 0,0
18.07.2018 05:00:00 13,3 11,4 - - 5 3 S 1016,6 29 0 0,0
18.07.2018 04:00:00 13,6 11,3 - - 5 3 SSE 1016,7 29 0 0,0
18.07.2018 03:00:00 12,5 11,1 - - 4 2 S 1016,9 35 0 0,0
18.07.2018 02:00:00 13,0 10,6 - - 4 2 S 1016,9 24 0 0,0
18.07.2018 01:00:00 15,0 11,5 - - 2 1 ESE 1016,8 30 - 0,0
18.07.2018 00:00:00 14,4 12,4 - - 4 2 SSW 1016,9 25 0 0,0
17.07.2018 23:00:00 15,9 11,6 - - 4 2 NW 1016,8 23 0 0,0
17.07.2018 22:00:00 16,5 10,6 - - 4 2 N 1016,6 35 0 0,0
17.07.2018 21:00:00 16,9 10,6 - - 8 4 NNW 1016,4 10 0 0,0
17.07.2018 20:00:00 18,0 10,1 - - 8 4 NNW 1016,1 10 0 0,0
17.07.2018 19:00:00 17,8 10,5 - - 11 6 NNW 1015,8 10 0 0,0
17.07.2018 18:00:00 18,2 10,0 - - 13 7 NNW 1015,7 10 18 0,0
17.07.2018 17:00:00 18,1 11,5 - - 13 7 NNW 1015,5 10 24 0,0
17.07.2018 16:00:00 18,4 12,1 - - 16 9 NNW 1015,4 10 18 0,0
17.07.2018 15:00:00 18,5 12,1 - - 15 8 NNW 1015,4 10 18 0,0
17.07.2018 14:00:00 19,8 9,8 - - 15 8 WSW 1015,2 10 6 0,0
17.07.2018 13:00:00 19,4 11,0 - - 5 3 - 1015,4 10 6 0,0
17.07.2018 12:00:00 17,2 12,6 - - 11 6 N 1015,6 10 6 0,0
17.07.2018 11:00:00 17,7 12,7 - - 5 3 - 1015,3 10 0 0,0
17.07.2018 10:00:00 16,9 12,8 18,9 17,0 4 2 - 1015,1 10 0 0,0
17.07.2018 09:00:00 16,2 13,3 - - 2 1 - 1015,0 10 0 0,0
17.07.2018 08:00:00 14,3 13,3 - - 4 2 SSE 1014,8 10 0 0,0
17.07.2018 07:00:00 12,9 12,4 - - 4 2 SSE 1014,6 10 42 0,0
17.07.2018 06:00:00 10,1 9,7 - - 5 3 S 1014,2 16 0 0,0
17.07.2018 05:00:00 10,5 10,0 - - 4 2 SSW 1013,9 17 0 0,0
17.07.2018 04:00:00 11,0 10,4 - - 5 3 SSW 1014,2 13 0 0,0
17.07.2018 03:00:00 10,5 9,7 - - 8 4 S 1013,9 30 0 0,0
17.07.2018 02:00:00 10,2 9,7 - - 5 3 W 1014,1 27 0 0,0
17.07.2018 01:00:00 10,9 10,1 - - 4 2 SW 1014,5 24 - 0,0
17.07.2018 00:00:00 12,9 11,6 - - 2 1 NW 1014,5 30 0 0,0
16.07.2018 23:00:00 13,8 12,4 - - 5 3 W 1014,5 17 0 0,0
16.07.2018 22:00:00 14,6 13,2 - - 5 3 WNW 1014,1 30 0 0,0
16.07.2018 21:00:00 14,6 13,4 - - 11 6 NW 1013,7 10 6 0,2
16.07.2018 20:00:00 14,6 13,6 - - 9 5 NW 1013,6 7 0 2,0
16.07.2018 19:00:00 14,8 14,0 - - 15 8 NW 1013,1 9 0 3,4
16.07.2018 18:00:00 16,0 15,0 - - 28 15 NW 1012,3 8 0 0,6
16.07.2018 17:00:00 17,3 15,8 - - 16 9 NNW 1012,4 9 18 0,4
16.07.2018 16:00:00 16,1 15,1 - - 16 9 NW 1012,8 9 0 0,8
16.07.2018 15:00:00 18,4 14,4 - - 21 11 NW 1012,9 10 0 0,0
16.07.2018 14:00:00 19,0 14,1 - - 11 6 NNW 1013,2 10 18 0,0
16.07.2018 13:00:00 19,3 14,8 - - 8 4 NW 1013,6 10 0 0,0
16.07.2018 12:00:00 18,0 13,9 - - 11 6 NNW 1013,9 10 0 0,0
16.07.2018 11:00:00 17,4 13,7 - - 11 6 NNW 1014,1 10 0 0,0
16.07.2018 10:00:00 17,1 12,8 19,9 17,0 11 6 NNW 1014,0 10 0 0,0
16.07.2018 09:00:00 16,5 14,1 - - 15 8 NW 1013,9 10 0 0,0
16.07.2018 08:00:00 18,0 15,2 - - 4 2 - 1013,5 10 0 0,0
16.07.2018 07:00:00 17,4 15,2 - - 2 1 - 1013,3 10 0 0,0
16.07.2018 06:00:00 17,0 14,9 - - 9 5 SSW 1013,5 23 0 0,0
16.07.2018 05:00:00 16,6 14,5 - - 8 4 S 1013,6 16 0 0,0
16.07.2018 04:00:00 16,6 14,3 - - 4 2 SSE 1013,8 19 0 0,0
16.07.2018 03:00:00 17,0 14,1 - - 5 3 SSE 1013,9 20 0 0,0
16.07.2018 02:00:00 17,2 13,9 - - 5 3 SSE 1014,3 24 0 0,0
16.07.2018 01:00:00 17,6 14,2 - - 8 4 S 1014,5 30 - 0,0
16.07.2018 00:00:00 16,0 13,4 - - 4 2 SE 1014,5 35 0 0,0
15.07.2018 23:00:00 16,2 13,1 - - 2 1 W 1014,6 30 0 0,0
15.07.2018 22:00:00 18,8 13,3 - - 4 2 SSW 1014,5 40 0 0,0
15.07.2018 21:00:00 20,6 13,7 - - 15 8 WSW 1014,1 50 18 0,0
15.07.2018 20:00:00 21,5 13,8 - - 16 9 W 1014,1 45 0 0,0
15.07.2018 19:00:00 22,7 13,4 - - 15 8 W 1013,9 10 6 0,0
15.07.2018 18:00:00 24,3 14,3 - - 13 7 W 1014,2 10 18 0,0
15.07.2018 17:00:00 23,7 13,0 - - 21 11 WSW 1014,4 10 0 0,0
15.07.2018 16:00:00 24,6 12,1 - - 9 5 W 1014,6 10 6 0,0
15.07.2018 15:00:00 24,4 11,9 - - 13 7 WSW 1014,7 10 12 0,0
15.07.2018 14:00:00 24,4 11,9 - - 15 8 WSW 1014,9 10 36 0,0
15.07.2018 13:00:00 25,0 11,3 - - 16 9 WSW 1015,3 10 48 0,0
15.07.2018 12:00:00 23,5 12,6 - - 9 5 WNW 1015,6 10 36 0,0
15.07.2018 11:00:00 22,7 13,5 - - 13 7 SW 1016,0 10 36 0,0
15.07.2018 10:00:00 20,7 13,4 19,7 17,0 15 8 SW 1016,4 10 36 0,0
15.07.2018 09:00:00 20,0 13,8 - - 13 7 SSW 1016,5 10 60 0,0
15.07.2018 08:00:00 17,7 14,6 - - 11 6 SE 1016,7 30 60 0,0
15.07.2018 07:00:00 13,8 12,5 - - 9 5 S 1016,6 30 60 0,0
15.07.2018 06:00:00 11,5 10,7 - - 5 3 S 1016,6 16 6 0,0
15.07.2018 05:00:00 11,9 10,9 - - 4 2 S 1016,7 17 0 0,0
15.07.2018 04:00:00 12,3 11,0 - - 8 4 SE 1017,2 21 0 0,0
15.07.2018 03:00:00 12,7 11,5 - - 8 4 S 1017,2 21 0 0,0
15.07.2018 02:00:00 14,3 11,3 - - 8 4 S 1017,4 40 0 0,0
15.07.2018 01:00:00 14,4 12,0 - - 8 4 SW 1017,6 45 - 0,0
15.07.2018 00:00:00 15,7 11,8 - - 8 4 SSW 1017,9 45 0 0,0
14.07.2018 23:00:00 16,9 12,0 - - 9 5 SW 1018,1 45 0 0,0
14.07.2018 22:00:00 19,1 11,8 - - 4 2 WNW 1017,9 50 0 0,0
14.07.2018 21:00:00 20,9 12,8 - - 9 5 W 1017,5 45 60 0,0
14.07.2018 20:00:00 22,4 14,2 - - 11 6 NNW 1017,3 40 60 0,0
14.07.2018 19:00:00 23,0 13,8 - - 13 7 NW 1017,3 10 60 0,0
14.07.2018 18:00:00 22,4 13,9 - - 21 11 NW 1017,6 10 42 0,0
14.07.2018 17:00:00 22,7 13,7 - - 21 11 NW 1017,8 10 24 0,0
14.07.2018 16:00:00 22,5 13,5 - - 22 12 NW 1018,1 10 24 0,0
14.07.2018 15:00:00 25,5 12,6 - - 9 5 SE 1018,4 10 54 0,0
14.07.2018 14:00:00 24,4 13,0 - - 9 5 - 1019,0 10 54 0,0
14.07.2018 13:00:00 23,4 13,0 - - 11 6 S 1019,4 10 42 0,0
14.07.2018 12:00:00 22,4 12,3 - - 5 3 - 1020,0 10 60 0,0
14.07.2018 11:00:00 21,7 12,7 - - 5 3 - 1020,3 10 60 0,0
14.07.2018 10:00:00 20,2 11,8 19,4 17,0 5 3 - 1020,6 10 60 0,0
14.07.2018 09:00:00 18,8 12,1 - - 8 4 SSE 1021,0 10 60 0,0
14.07.2018 08:00:00 17,4 11,9 - - 2 1 S 1021,2 30 60 0,0
14.07.2018 07:00:00 14,3 12,7 - - 2 1 S 1021,2 23 48 0,0
14.07.2018 06:00:00 12,1 11,2 - - 2 1 ENE 1021,3 20 0 0,0
14.07.2018 05:00:00 13,0 11,8 - - 0 0 N 1021,3 30 0 0,0
14.07.2018 04:00:00 13,2 12,2 - - 4 2 SSW 1021,4 15 0 0,0
14.07.2018 03:00:00 12,8 11,5 - - 2 1 SW 1021,6 19 0 0,0
14.07.2018 02:00:00 13,6 12,0 - - 2 1 W 1021,7 27 0 0,0
14.07.2018 01:00:00 13,9 11,5 - - 2 1 SW 1022,0 35 - 0,0
14.07.2018 00:00:00 15,0 11,8 - - 4 2 W 1022,2 35 0 0,0
13.07.2018 23:00:00 15,3 13,4 - - 2 1 SSW 1022,2 19 0 0,0
13.07.2018 22:00:00 16,4 12,7 - - 4 2 NW 1022,0 45 0 0,0
13.07.2018 21:00:00 17,1 13,8 - - 11 6 NW 1021,6 10 0 0,0
13.07.2018 20:00:00 17,6 14,6 - - 13 7 NNW 1021,4 9 24 0,0
13.07.2018 19:00:00 18,1 15,5 - - 16 9 NNW 1021,2 9 42 0,0
13.07.2018 18:00:00 17,5 15,8 - - 18 10 NW 1021,4 8 0 0,4

tt = Température de l'air
td = dewpoint
tt -20cm = Température de l'air -20cm
tt -100cm = Température de l'air -100cm
ff = Vitesse du vent
dd = Direction du vent
ppp = reduced air pressure
vv = visibility
sd = Ensoleillement
rr = Quantités de précipitations

stations d'obs. à proximité